Rantoul, IL

3:15 PM CDT on June 27, 2017 (GMT -0500)
Rantoul

Weather History for KTIP - October, 2012

Change the Weather History Date:

Saturday, October 6, 2012

  Actual Average (KCMI) Record (KCMI)
Temperature  
Mean Temperature 42 °F -  
Max Temperature 52 °F 68 °F 91 °F (2007)
Min Temperature 33 °F 43 °F 31 °F (2012)
Degree Days  
Heating Degree Days 22    
Moisture  
Dew Point 33 °F    
Average Humidity 71    
Maximum Humidity 96    
Minimum Humidity 48    
Precipitation  
Precipitation 0.01 in - - ()
Sea Level Pressure  
Sea Level Pressure 30.17 in    
Wind  
Wind Speed 8 mph (WNW)    
Max Wind Speed 16 mph    
Max Gust Speed 23 mph    
Visibility 10 miles    
Events      
Averages and records for this station are not official NWS values.
T = Trace of Precipitation, MM = Missing Value Source: NWS Daily Summary

Daily Weather History Graph

Daily Weather History Graph

Search for Another Location

Airport or City:

Trip Planner

Search our weather history database for the weather conditions in past years. The results will help you decide how hot, cold, wet, or windy it might be!

Date:

Astronomy

Oct. 06, 2012 Rise Set
Actual Time 6:54 AM CDT 6:25 PM CDT
Civil Twilight 6:27 AM CDT 6:53 PM CDT
Nautical Twilight 5:55 AM CDT 7:24 PM CDT
Astronomical Twilight 5:24 AM CDT 7:56 PM CDT
Moon 10:40 PM CDT (10/6) 12:49 PM CDT (10/6)
Length of Visible Light 12h 25m
Length of Day
11h 31m
Waning Gibbous, 65% of the Moon is Illuminated
Oct 6
Waning Gibbous
Oct 8
Last Quarter
Oct 15
New
Oct 21
First Quarter
Oct 29
Full

Hourly Weather History & Observations

Time (CDT) Temp. Windchill Dew Point Humidity Pressure Visibility Wind Dir Wind Speed Gust Speed Precip Events Conditions
12:15 AM 38.7 °F 35.2 °F 36.0 °F 90% 30.14 in 10.0 mi West 4.6 mph - N/A   Clear
12:35 AM 38.5 °F 33.4 °F 36.1 °F 91% 30.14 in 10.0 mi West 6.9 mph - N/A   Clear
12:55 AM 38.3 °F 33.9 °F 36.0 °F 91% 30.13 in 10.0 mi West 5.8 mph - N/A   Clear
1:15 AM 37.0 °F 31.6 °F 35.6 °F 95% 30.13 in 10.0 mi West 6.9 mph - N/A   Clear
1:35 AM 37.4 °F 32.1 °F 35.6 °F 93% 30.14 in 10.0 mi West 6.9 mph - N/A   Clear
1:55 AM 36.7 °F 31.2 °F 35.1 °F 94% 30.13 in 10.0 mi West 6.9 mph - N/A   Clear
2:15 AM 36.5 °F 31.0 °F 35.1 °F 95% 30.13 in 10.0 mi West 6.9 mph - N/A   Clear
2:35 AM 36.1 °F 31.4 °F 34.7 °F 94% 30.13 in 10.0 mi West 5.8 mph - N/A   Clear
2:55 AM 35.6 °F 31.7 °F 34.3 °F 95% 30.13 in 10.0 mi West 4.6 mph - N/A   Clear
3:15 AM 35.1 °F 30.1 °F 34.0 °F 96% 30.13 in 10.0 mi West 5.8 mph - N/A   Clear
3:35 AM 35.8 °F 30.9 °F 34.5 °F 95% 30.13 in 10.0 mi West 5.8 mph - N/A   Clear
3:55 AM 35.4 °F 30.5 °F 34.0 °F 94% 30.13 in 10.0 mi West 5.8 mph - N/A   Clear
4:15 AM 35.6 °F 31.7 °F 33.8 °F 93% 30.14 in 10.0 mi WSW 4.6 mph - N/A   Clear
4:35 AM 34.7 °F 29.6 °F 33.6 °F 96% 30.14 in 10.0 mi West 5.8 mph - N/A   Clear
4:55 AM 34.7 °F 30.6 °F 33.3 °F 94% 30.14 in 10.0 mi West 4.6 mph - N/A   Clear
5:15 AM 34.3 °F 30.2 °F 32.9 °F 94% 30.15 in 10.0 mi WSW 4.6 mph - N/A   Clear
5:35 AM 33.8 °F 28.6 °F 32.4 °F 94% 30.15 in 10.0 mi SW 5.8 mph - N/A   Clear
5:55 AM 33.4 °F 29.1 °F 32.4 °F 96% 30.16 in 10.0 mi WSW 4.6 mph - N/A   Clear
6:15 AM 34.7 °F 28.8 °F 32.4 °F 91% 30.17 in 10.0 mi West 6.9 mph - N/A   Clear
6:35 AM 35.2 °F 28.8 °F 32.5 °F 90% 30.17 in 10.0 mi West 8.1 mph - N/A   Clear
6:55 AM 35.1 °F 28.6 °F 32.4 °F 90% 30.17 in 10.0 mi WNW 8.1 mph - N/A   Clear
7:15 AM 35.6 °F 29.2 °F 32.7 °F 89% 30.17 in 7.0 mi West 8.1 mph - N/A   Clear
7:35 AM 36.3 °F 30.1 °F 33.3 °F 89% 30.18 in 7.0 mi West 8.1 mph - N/A   Clear
7:55 AM 36.7 °F 31.2 °F 33.1 °F 87% 30.18 in 10.0 mi West 6.9 mph - N/A   Clear
8:15 AM 38.3 °F 33.9 °F 34.2 °F 85% 30.19 in 10.0 mi West 5.8 mph - N/A   Clear
8:35 AM 39.4 °F 33.2 °F 34.0 °F 81% 30.20 in 10.0 mi WNW 9.2 mph - N/A   Clear
8:55 AM 41.0 °F 34.7 °F 33.8 °F 76% 30.20 in 10.0 mi WNW 10.4 mph - N/A   Clear
9:15 AM 41.5 °F 34.6 °F 33.4 °F 73% 30.19 in 10.0 mi WNW 12.7 mph 18.4 mph N/A   Clear
9:35 AM 42.3 °F 34.8 °F 32.5 °F 68% 30.19 in 10.0 mi WNW 15.0 mph - N/A   Clear
9:55 AM 43.2 °F 36.2 °F 32.7 °F 67% 30.19 in 10.0 mi NW 13.8 mph 20.7 mph N/A   Clear
10:15 AM 43.9 °F 36.5 °F 32.2 °F 63% 30.20 in 10.0 mi WNW 16.1 mph 19.6 mph N/A   Clear
10:35 AM 44.8 °F 38.7 °F 31.8 °F 60% 30.20 in 10.0 mi NW 12.7 mph 20.7 mph N/A   Clear
10:55 AM 45.9 °F 39.4 °F 32.0 °F 58% 30.20 in 10.0 mi WNW 15.0 mph 19.6 mph N/A   Clear
11:15 AM 46.8 °F - 32.5 °F 58% 30.19 in 10.0 mi WNW 13.8 mph 17.3 mph N/A   Clear
11:35 AM 47.1 °F - 32.0 °F 56% 30.19 in 10.0 mi WNW 15.0 mph 18.4 mph N/A   Clear
11:55 AM 48.0 °F - 32.7 °F 55% 30.19 in 10.0 mi WNW 10.4 mph 19.6 mph N/A   Clear
12:15 PM 48.7 °F - 33.1 °F 55% 30.19 in 10.0 mi NW 12.7 mph 19.6 mph N/A   Clear
12:35 PM 49.3 °F - 33.1 °F 54% 30.18 in 10.0 mi WNW 12.7 mph 18.4 mph N/A   Clear
12:55 PM 49.3 °F - 32.7 °F 53% 30.18 in 10.0 mi WNW 13.8 mph 19.6 mph N/A   Clear
1:15 PM 50.2 °F - 33.3 °F 52% 30.18 in 10.0 mi WNW 15.0 mph 20.7 mph N/A   Clear
1:35 PM 50.5 °F - 32.7 °F 51% 30.17 in 10.0 mi NW 12.7 mph - N/A   Clear
1:55 PM 50.9 °F - 33.1 °F 51% 30.17 in 10.0 mi WNW 12.7 mph 17.3 mph N/A   Clear
2:15 PM 51.4 °F - 33.1 °F 50% 30.17 in 10.0 mi WNW 11.5 mph 23.0 mph N/A   Clear
2:35 PM 52.0 °F - 33.3 °F 49% 30.17 in 10.0 mi NW 11.5 mph 18.4 mph N/A   Clear
2:55 PM 51.3 °F - 32.2 °F 48% 30.17 in 10.0 mi WNW 12.7 mph 19.6 mph N/A   Clear
3:15 PM 50.7 °F - 32.5 °F 50% 30.16 in 10.0 mi WNW 10.4 mph - N/A   Clear
3:35 PM 50.4 °F - 32.4 °F 50% 30.16 in 10.0 mi WNW 10.4 mph - N/A   Clear
3:55 PM 50.9 °F - 32.9 °F 50% 30.16 in 10.0 mi WNW 13.8 mph 20.7 mph N/A   Scattered Clouds
4:15 PM 50.0 °F - 32.2 °F 50% 30.15 in 10.0 mi NW 12.7 mph 23.0 mph N/A   Scattered Clouds
4:35 PM 49.3 °F - 32.0 °F 51% 30.16 in 10.0 mi NW 11.5 mph - N/A   Clear
4:55 PM 48.4 °F - 31.8 °F 53% 30.17 in 10.0 mi WNW 11.5 mph - N/A   Scattered Clouds
5:15 PM 48.2 °F - 32.5 °F 55% 30.18 in 10.0 mi WNW 9.2 mph - N/A   Clear
5:35 PM 47.8 °F - 32.0 °F 54% 30.18 in 10.0 mi WNW 10.4 mph - N/A   Clear
5:55 PM 47.3 °F - 32.7 °F 57% 30.19 in 10.0 mi WNW 10.4 mph - N/A   Clear
6:15 PM 46.9 °F - 32.9 °F 58% 30.19 in 10.0 mi WNW 8.1 mph - N/A   Clear
6:35 PM 46.8 °F - 32.9 °F 59% 30.19 in 10.0 mi WNW 9.2 mph - N/A   Mostly Cloudy
6:55 PM 46.4 °F 42.9 °F 33.6 °F 61% 30.19 in 10.0 mi WNW 6.9 mph - N/A   Overcast
7:15 PM 45.9 °F 41.7 °F 33.8 °F 63% 30.19 in 10.0 mi WNW 8.1 mph - N/A   Mostly Cloudy
7:35 PM 46.0 °F 42.5 °F 34.0 °F 63% 30.19 in 10.0 mi WNW 6.9 mph - N/A   Overcast
7:55 PM 45.7 °F 42.7 °F 34.7 °F 65% 30.19 in 10.0 mi WNW 5.8 mph - N/A   Overcast
8:15 PM 45.7 °F 42.7 °F 34.2 °F 64% 30.19 in 10.0 mi WNW 5.8 mph - N/A   Overcast
8:35 PM 45.0 °F 40.6 °F 34.5 °F 67% 30.20 in 10.0 mi WNW 8.1 mph - N/A   Overcast
8:55 PM 45.5 °F 41.3 °F 34.2 °F 65% 30.20 in 10.0 mi WNW 8.1 mph - N/A   Overcast
9:15 PM 44.8 °F 41.0 °F 34.3 °F 67% 30.20 in 10.0 mi NW 6.9 mph - N/A   Mostly Cloudy
9:35 PM 44.8 °F 41.0 °F 32.9 °F 63% 30.20 in 10.0 mi NNW 6.9 mph - N/A   Scattered Clouds
9:55 PM 44.6 °F 40.7 °F 32.2 °F 62% 30.20 in 10.0 mi NNW 6.9 mph - N/A   Scattered Clouds
10:15 PM 44.2 °F 40.3 °F 32.2 °F 63% 30.21 in 10.0 mi NNW 6.9 mph - N/A   Scattered Clouds
10:35 PM 44.1 °F 40.1 °F 32.4 °F 63% 30.21 in 10.0 mi NW 6.9 mph - N/A   Mostly Cloudy
10:55 PM 43.2 °F 39.7 °F 33.1 °F 68% 30.21 in 10.0 mi NW 5.8 mph - N/A   Scattered Clouds
11:15 PM 43.0 °F 38.8 °F 32.5 °F 67% 30.21 in 10.0 mi NW 6.9 mph - N/A   Clear
11:35 PM 42.8 °F 39.3 °F 32.5 °F 67% 30.21 in 10.0 mi NW 5.8 mph - N/A   Clear
11:55 PM 42.3 °F 38.6 °F 32.2 °F 67% 30.20 in 10.0 mi NW 5.8 mph - N/A   Clear